Home > Weather > Catania > Past weeks

Flag for Italy Past Weather in Catania, Italy — Yesterday and Last 2 Weeks

Now
73 °F

Clear.


Feels Like: 74 °F
Forecast: 64 / 89 °F
Wind: 3 mph from Southwest

Location: Catania / Fontanarossa

Current Time: Jul 1, 2016 at 1:17:00 AM

Latest Report: Jul 1, 2016 at 12:20 AM


Visibility: 10 mi

Pressure: 30.01 "Hg

Humidity: 78%

Dew Point: 66 °F

Location of CataniaLocation

Past Weather in Catania — Graph

°F

Catania Temperature Yesterday

Maximum temperature yesterday: 86 °F (at 10:50 AM)
Minimum temperature yesterday: 63 °F (at 4:50 AM)
Average temperature yesterday: 75 °F

High & Low Weather Summary for the Past Weeks

 TemperatureHumidityPressure
High90 °F (Jun 25, 11:50 AM)94% (Jun 16, 5:50 AM)30.12 "Hg (Jun 16, 5:50 AM)
Low57 °F (Jun 20, 5:50 AM)24% (Jun 29, 11:20 AM)29.80 "Hg (Jun 25, 2:20 PM)
Average74 °F62%29.96 "Hg
* Reported Jun 15 11:20 PM — Jun 30 11:50 PM, Catania, Weather by CustomWeather, © 2016

Note: Actual official high and low records may vary slightly from our data, if they occured in-between our weather recording intervals... More about our weather records

Advertising

Catania Weather History for the Previous 24 Hours

Scroll right to see more
 ConditionsComfort  
Time TempWeatherWind HumidityBarometerVisibility
11:50 PM
Thu, Jun 30
73 °FClear.3 mph78%30.04 "Hg10 mi
11:20 PM72 °FClear.6 mph83%30.04 "Hg10 mi
10:50 PM72 °FClear.6 mph83%30.04 "Hg10 mi
10:20 PM73 °FClear.7 mph74%30.04 "Hg10 mi
9:50 PM75 °FPassing clouds.7 mph69%30.01 "HgN/A
9:20 PM75 °FSunny.9 mph74%30.01 "Hg10 mi
8:50 PM75 °FSunny.10 mph69%29.98 "Hg10 mi
8:20 PM75 °FSunny.12 mph74%29.98 "Hg10 mi
7:50 PM77 °FSunny.13 mph65%29.98 "Hg10 mi
7:20 PM77 °FSunny.14 mph65%29.95 "Hg10 mi
6:50 PM79 °FSunny.14 mph61%29.98 "Hg10 mi
6:20 PM81 °FSunny.13 mph54%29.95 "Hg10 mi
5:50 PM81 °FSunny.13 mph58%29.95 "Hg10 mi
5:20 PM81 °FPassing clouds.13 mph58%29.98 "HgN/A
4:50 PM81 °FSunny.12 mph58%29.98 "Hg10 mi
4:20 PM82 °FSunny.10 mph51%29.98 "Hg10 mi
3:50 PM81 °FPassing clouds.12 mph54%30.01 "HgN/A
3:20 PM81 °FSunny.12 mph58%30.01 "Hg10 mi
2:50 PM81 °FPassing clouds.10 mph58%30.01 "HgN/A
2:20 PM82 °FPassing clouds.13 mph51%29.98 "HgN/A
1:50 PM82 °FSunny.13 mph48%30.01 "Hg10 mi
1:20 PM84 °FSunny.13 mph40%30.01 "Hg10 mi
12:50 PM82 °FSunny.14 mph45%30.01 "Hg10 mi
12:20 PM84 °FSunny.13 mph40%30.01 "Hg10 mi
11:50 AM86 °FPassing clouds.9 mph38%30.01 "HgN/A
11:20 AM86 °FPassing clouds.5 mph29%30.01 "HgN/A
10:50 AM86 °FSunny.5 mph29%30.01 "Hg10 mi
10:20 AM84 °FSunny.6 mph33%30.01 "Hg10 mi
9:50 AM82 °FPassing clouds.8 mph37%30.04 "HgN/A
9:20 AM81 °FPassing clouds.6 mph39%30.04 "HgN/A
8:50 AM79 °FPassing clouds.6 mph45%30.01 "HgN/A
8:20 AM75 °FSunny.7 mph50%30.01 "Hg10 mi
7:50 AM73 °FSunny.3 mph61%30.01 "Hg10 mi
7:20 AM70 °FSunny.6 mph64%30.01 "Hg10 mi
6:50 AM66 °FSunny.6 mph73%30.01 "Hg10 mi
6:20 AM64 °FClear.6 mph73%30.01 "Hg10 mi
5:50 AM64 °FClear.5 mph73%29.98 "Hg10 mi
5:20 AM63 °FClear.5 mph83%30.01 "Hg10 mi
4:50 AM63 °FClear.7 mph83%29.98 "Hg10 mi
4:20 AM64 °FClear.5 mph73%29.98 "Hg10 mi
3:50 AM64 °FPassing clouds.3 mph73%29.98 "HgN/A
3:20 AM66 °FClear.7 mph73%29.98 "Hg10 mi
2:50 AM66 °FClear.7 mph73%29.98 "Hg10 mi
2:20 AM68 °FClear.5 mph69%29.98 "Hg10 mi
1:50 AM70 °FClear.5 mph64%29.98 "Hg10 mi
1:20 AM70 °FClear.7 mph69%29.98 "Hg10 mi
Weather by CustomWeather, © 2016

See weather overviewHow to use our weather pages